WA7ZVY-4 Weather Reports


Display with metric or nautical units.
time (UTC)temp
F
wind
direction
speed
MPH
gust
MPH
rain 1hr
in
rain 24hr
in
rain mn
in
humidity
%
barometer
mb
20220126150716 40 98 11.0 17.0 0.00 0.00 0.00 75 1021.9
20220126150209 40 117 11.0 13.0 0.00 0.00 0.00 75 1021.7
20220126145702 40 99 8.0 13.0 0.00 0.00 0.00 75 1021.8
20220126145155 40 68 10.0 13.0 0.00 0.00 0.00 76 1021.7
20220126144141 40 72 4.0 8.0 0.00 0.00 0.00 75 1021.7
20220126142113 40 0 0.0 7.0 0.00 0.00 0.00 75 1021.5
20220126141606 40 116 4.0 7.0 0.00 0.00 0.00 75 1021.5
20220126140552 40 138 5.0 9.0 0.00 0.00 0.00 75 1021.5
20220126140046 40 120 6.0 9.0 0.00 0.00 0.00 74 1021.5
20220126135538 40 67 5.0 9.0 0.00 0.00 0.00 74 1021.5
20220126135031 40 113 6.0 9.0 0.00 0.00 0.00 75 1021.4
20220126134524 40 135 4.0 9.0 0.00 0.00 0.00 74 1021.3
20220126134017 41 102 3.0 9.0 0.00 0.00 0.00 74 1021.3
20220126133510 41 50 4.0 9.0 0.00 0.00 0.00 74 1021.3
20220126133003 41 0 0.0 7.0 0.00 0.00 0.00 73 1021.2
20220126132456 41 126 4.0 10.0 0.00 0.00 0.00 73 1021.1
20220126131949 41 86 4.0 10.0 0.00 0.00 0.00 73 1020.9
20220126131443 41 82 5.0 10.0 0.00 0.00 0.00 73 1020.9
20220126130935 41 151 5.0 10.0 0.00 0.00 0.00 73 1020.9
20220126130428 42 72 7.0 13.0 0.00 0.00 0.00 72 1020.8
20220126125921 41 109 7.0 13.0 0.00 0.00 0.00 72 1020.9
20220126125414 42 112 8.0 13.0 0.00 0.00 0.00 72 1020.8
20220126124907 41 110 9.0 13.0 0.00 0.00 0.00 73 1020.8
20220126124401 41 114 7.0 10.0 0.00 0.00 0.00 73 1020.9
20220126123853 41 110 10.0 15.0 0.00 0.00 0.00 73 1020.9
20220126123346 41 105 10.0 15.0 0.00 0.00 0.00 73 1020.8
20220126122840 41 105 11.0 15.0 0.00 0.00 0.00 73 1020.7
20220126122332 41 123 10.0 11.0 0.00 0.00 0.00 73 1020.6
20220126121828 41 102 8.0 11.0 0.00 0.00 0.00 73 1020.6
20220126121318 41 103 8.0 11.0 0.00 0.00 0.00 73 1020.7
20220126120811 41 114 7.0 11.0 0.00 0.00 0.00 73 1020.7
20220126120304 41 40 7.0 10.0 0.00 0.00 0.00 73 1020.7
20220126115800 41 81 3.0 8.0 0.00 0.00 0.00 73 1020.7
20220126115250 41 107 7.0 8.0 0.00 0.00 0.00 73 1020.7
20220126114744 41 159 5.0 6.0 0.00 0.00 0.00 73 1020.6
20220126114239 41 112 5.0 9.0 0.00 0.00 0.00 73 1020.7
20220126113222 41 112 5.0 9.0 0.00 0.00 0.00 73 1020.9
20220126112209 41 70 4.0 8.0 0.00 0.00 0.00 73 1020.9
20220126111701 41 106 4.0 6.0 0.00 0.00 0.00 73 1020.8
20220126111154 41 0 0.0 3.0 0.00 0.00 0.00 72 1021.0
20220126110647 41 0 0.0 3.0 0.00 0.00 0.00 72 1021.0
20220126110140 42 49 1.0 8.0 0.00 0.00 0.00 71 1020.9
20220126105633 42 82 4.0 8.0 0.00 0.00 0.00 71 1020.8
20220126105126 42 113 4.0 8.0 0.00 0.00 0.00 71 1020.7
20220126104619 42 148 2.0 8.0 0.00 0.00 0.00 71 1020.7
20220126104112 42 68 1.0 11.0 0.00 0.00 0.00 70 1020.7
20220126103605 42 175 5.0 11.0 0.00 0.00 0.00 70 1020.6
20220126102551 42 117 9.0 11.0 0.00 0.00 0.00 71 1020.5
20220126102044 42 117 9.0 11.0 0.00 0.00 0.00 71 1020.4
20220126101537 42 81 3.0 11.0 0.00 0.00 0.00 71 1020.3
20220126101030 42 85 5.0 11.0 0.00 0.00 0.00 71 1020.3
20220126100523 42 144 9.0 11.0 0.00 0.00 0.00 71 1020.5
20220126100016 42 63 7.0 12.0 0.00 0.00 0.00 71 1020.5
20220126095509 42 89 2.0 12.0 0.00 0.00 0.00 72 1020.5
20220126095002 42 100 3.0 12.0 0.00 0.00 0.00 72 1020.6
20220126094455 42 77 5.0 12.0 0.00 0.00 0.00 73 1020.7
20220126093948 42 70 4.0 5.0 0.00 0.00 0.00 73 1020.6
20220126093441 42 98 2.0 5.0 0.00 0.00 0.00 73 1020.6
20220126092934 42 92 3.0 5.0 0.00 0.00 0.00 73 1020.7
20220126092429 42 107 5.0 5.0 0.00 0.00 0.00 73 1020.6
20220126091920 42 43 2.0 4.0 0.00 0.00 0.00 73 1020.7
20220126091413 42 337 0.0 9.0 0.00 0.00 0.00 73 1020.8
20220126090906 42 63 3.0 9.0 0.00 0.00 0.00 72 1020.9
20220126090359 43 4 4.0 9.0 0.00 0.00 0.00 72 1020.6
20220126085852 43 43 8.0 9.0 0.00 0.00 0.00 71 1020.5
20220126085345 43 71 5.0 6.0 0.00 0.00 0.00 71 1020.5
20220126084838 43 47 3.0 6.0 0.00 0.00 0.00 71 1020.4
20220126084332 43 57 7.0 10.0 0.00 0.00 0.00 70 1020.6
20220126083824 43 85 6.0 10.0 0.00 0.00 0.00 70 1020.6
20220126083317 43 120 8.0 10.0 0.00 0.00 0.00 70 1020.6
20220126082810 43 78 6.0 8.0 0.00 0.00 0.00 70 1020.5
20220126082305 44 88 5.0 8.0 0.00 0.00 0.00 70 1020.6
20220126081756 44 100 7.0 8.0 0.00 0.00 0.00 70 1020.3
20220126081249 44 65 8.0 21.0 0.00 0.00 0.00 69 1020.4
20220126080742 44 39 9.0 21.0 0.00 0.00 0.00 69 1020.3
20220126080237 44 61 10.0 21.0 0.00 0.00 0.00 69 1020.3
20220126075728 44 70 10.0 13.0 0.00 0.00 0.00 69 1020.5
20220126075221 44 65 9.0 13.0 0.00 0.00 0.00 69 1020.4
20220126074714 44 57 9.0 13.0 0.00 0.00 0.00 69 1020.2
20220126074207 44 99 11.0 13.0 0.00 0.00 0.00 70 1020.2
20220126073700 44 99 6.0 17.0 0.00 0.00 0.00 70 1020.1
20220126073152 44 102 8.0 17.0 0.00 0.00 0.00 70 1020.1
20220126072646 44 113 10.0 17.0 0.00 0.00 0.00 70 1020.4
20220126072139 44 110 11.0 17.0 0.00 0.00 0.00 71 1020.6
20220126071631 44 148 8.0 16.0 0.00 0.00 0.00 71 1020.6
20220126071124 44 107 4.0 16.0 0.00 0.00 0.00 71 1020.6
20220126070618 43 98 10.0 16.0 0.00 0.00 0.00 71 1020.6
20220126070112 43 92 11.0 16.0 0.00 0.00 0.00 72 1020.6
20220126065603 43 105 10.0 13.0 0.00 0.00 0.00 73 1020.6
20220126064549 43 103 3.0 7.0 0.00 0.00 0.00 74 1020.7
20220126064042 43 89 1.0 6.0 0.00 0.00 0.00 74 1020.8
20220126063536 43 89 2.0 6.0 0.00 0.00 0.00 74 1020.8
20220126063029 43 102 4.0 6.0 0.00 0.00 0.00 73 1020.9
20220126062521 43 113 3.0 11.0 0.00 0.00 0.00 73 1021.1
20220126062014 43 103 7.0 11.0 0.00 0.00 0.00 73 1021.1
20220126061508 43 103 9.0 11.0 0.00 0.00 0.00 73 1021.0
20220126061000 43 126 7.0 9.0 0.00 0.00 0.00 74 1021.0
20220126060454 43 88 4.0 9.0 0.00 0.00 0.00 73 1020.9
20220126055946 43 357 2.0 9.0 0.00 0.00 0.00 73 1020.8
20220126055440 43 110 7.0 9.0 0.00 0.00 0.00 73 1020.8
20220126054932 43 78 3.0 9.0 0.00 0.00 0.00 73 1020.8
20220126054425 43 114 7.0 9.0 0.00 0.00 0.00 73 1020.7
20220126053921 43 105 7.0 8.0 0.00 0.00 0.00 73 1020.5
20220126053411 44 127 7.0 10.0 0.00 0.00 0.00 73 1020.5
20220126052904 44 72 6.0 10.0 0.00 0.00 0.00 73 1020.4
20220126052357 44 98 6.0 10.0 0.00 0.00 0.00 72 1020.5
20220126051850 44 61 7.0 10.0 0.00 0.00 0.00 72 1020.5
20220126051343 44 114 8.0 9.0 0.00 0.00 0.00 72 1020.6
20220126050836 44 96 5.0 9.0 0.00 0.00 0.00 72 1020.6
20220126050331 44 116 7.0 9.0 0.00 0.00 0.00 72 1020.5
20220126045824 44 116 3.0 8.0 0.00 0.00 0.00 72 1020.4
20220126045315 44 135 4.0 8.0 0.00 0.00 0.00 72 1020.4
20220126044809 44 134 2.0 5.0 0.00 0.00 0.00 72 1020.4
20220126044301 44 147 4.0 7.0 0.00 0.00 0.00 72 1020.4
20220126043754 44 141 3.0 7.0 0.00 0.00 0.00 72 1020.6
20220126042740 44 128 6.0 6.0 0.00 0.00 0.00 72 1020.6
20220126041726 44 103 5.0 8.0 0.00 0.00 0.00 72 1020.6
20220126041219 44 135 4.0 8.0 0.00 0.00 0.00 72 1020.6
20220126040714 44 63 3.0 8.0 0.00 0.00 0.00 72 1020.7
20220126040205 44 56 4.0 7.0 0.00 0.00 0.00 72 1020.8
20220126035658 45 71 6.0 7.0 0.00 0.00 0.00 72 1020.8
20220126035151 45 67 5.0 7.0 0.00 0.00 0.00 72 1020.7
20220126034644 45 54 3.0 7.0 0.00 0.00 0.00 72 1020.9
20220126034139 45 42 6.0 10.0 0.00 0.00 0.00 73 1020.8
20220126033630 45 89 4.0 10.0 0.00 0.00 0.00 73 1020.8
20220126033124 45 37 4.0 10.0 0.00 0.00 0.00 73 1020.9
20220126031635 44 310 1.0 2.0 0.00 0.00 0.00 72 1020.9
20220126031055 45 0 0.0 0.0 0.00 0.00 0.00 72 1020.3
20220126030548 45 0 0.0 0.0 0.00 0.00 0.00 72 1020.0
20220126030041 45 0 0.0 0.0 0.00 0.00 0.00 71 1020.3
20220126025534 45 0 0.0 0.0 0.00 0.00 0.00 70 1020.2
20220126025028 45 0 0.0 0.0 0.00 0.00 0.00 70 1020.3
20220126024520 46 0 0.0 0.0 0.00 0.00 0.00 69 1020.2
20220126024013 46 0 0.0 0.0 0.00 0.00 0.00 69 1020.2
20220126023506 46 0 0.0 0.0 0.00 0.00 0.00 68 1020.3
20220126022959 47 0 0.0 0.0 0.00 0.00 0.00 68 1020.4
20220126022452 47 0 0.0 7.0 0.00 0.00 0.00 67 1020.3
20220126021945 47 0 0.0 7.0 0.00 0.00 0.00 66 1020.3
20220126021438 48 0 0.0 7.0 0.00 0.00 0.00 66 1020.5
20220126020931 48 79 3.0 7.0 0.00 0.00 0.00 65 1020.4
20220126020424 48 70 6.0 10.0 0.00 0.00 0.00 65 1020.3
20220126015918 48 44 6.0 10.0 0.00 0.00 0.00 65 1020.0
20220126014903 49 67 8.0 10.0 0.00 0.00 0.00 65 1019.8
20220126013342 49 106 2.0 7.0 0.00 0.00 0.00 63 1019.9
20220126012836 50 65 3.0 7.0 0.00 0.00 0.00 63 1020.0
20220126011821 50 33 5.0 6.0 0.00 0.00 0.00 62 1020.0
20220126011314 50 85 5.0 10.0 0.00 0.00 0.00 61 1020.1
20220126010807 51 98 7.0 10.0 0.00 0.00 0.00 61 1020.1
20220126010300 51 103 4.0 10.0 0.00 0.00 0.00 60 1020.2
20220126005753 51 107 7.0 8.0 0.00 0.00 0.00 59 1020.3
20220126005246 51 0 0.0 5.0 0.00 0.00 0.00 59 1020.3
20220126004739 51 44 5.0 5.0 0.00 0.00 0.00 58 1020.3
20220126004232 52 0 0.0 10.0 0.00 0.00 0.00 58 1020.3
20220126003725 52 0 0.0 10.0 0.00 0.00 0.00 57 1020.2
20220126003218 52 0 0.0 10.0 0.00 0.00 0.00 56 1020.3
20220126002711 52 107 7.0 10.0 0.00 0.00 0.00 56 1020.2
20220126002205 52 134 6.0 9.0 0.00 0.00 0.00 55 1020.2
20220126001151 53 128 2.0 5.0 0.00 0.00 0.00 56 1020.2
20220126000643 53 54 3.0 10.0 0.00 0.00 0.00 56 1020.3
20220126000136 53 117 2.0 10.0 0.00 0.00 0.00 54 1020.4
20220125235629 53 71 5.0 10.0 0.00 0.00 0.00 54 1020.5
20220125235123 54 98 7.0 10.0 0.00 0.00 0.00 53 1020.5
20220125234615 54 114 5.0 13.0 0.00 0.00 0.00 53 1020.5
20220125234108 54 156 6.0 13.0 0.00 0.00 0.00 53 1020.6
20220125233602 54 126 6.0 13.0 0.00 0.00 0.00 53 1020.7
20220125233055 54 114 9.0 13.0 0.00 0.00 0.00 53 1020.7
20220125232548 54 65 4.0 11.0 0.00 0.00 0.00 54 1020.8
20220125231533 54 142 8.0 11.0 0.00 0.00 0.00 53 1020.9
20220125231026 54 68 3.0 9.0 0.00 0.00 0.00 53 1021.1
20220125230519 54 63 4.0 8.0 0.00 0.00 0.00 53 1021.1
20220125230012 54 67 5.0 8.0 0.00 0.00 0.00 53 1021.0
20220125225505 54 75 4.0 8.0 0.00 0.00 0.00 54 1021.0
20220125224958 54 0 0.0 7.0 0.00 0.00 0.00 54 1020.9
20220125224451 54 0 0.0 7.0 0.00 0.00 0.00 53 1020.9
20220125223945 54 84 6.0 6.0 0.00 0.00 0.00 53 1021.0
20220125223437 54 36 1.0 11.0 0.00 0.00 0.00 52 1021.1
20220125222930 55 0 6.0 11.0 0.00 0.00 0.00 53 1021.2
20220125222423 55 71 6.0 11.0 0.00 0.00 0.00 53 1021.3
20220125221916 55 53 9.0 11.0 0.00 0.00 0.00 53 1021.3
20220125221409 55 50 6.0 11.0 0.00 0.00 0.00 53 1021.0
20220125220902 55 50 6.0 11.0 0.00 0.00 0.00 53 1021.0
20220125220355 55 47 7.0 11.0 0.00 0.00 0.00 53 1021.0
20220125215848 55 103 7.0 13.0 0.00 0.00 0.00 53 1021.0
20220125215341 55 135 7.0 13.0 0.00 0.00 0.00 54 1021.0
20220125214834 55 119 8.0 13.0 0.00 0.00 0.00 54 1021.1
20220125214327 55 50 9.0 13.0 0.00 0.00 0.00 54 1021.0
20220125213820 55 71 7.0 12.0 0.00 0.00 0.00 55 1021.1
20220125213313 55 86 9.0 12.0 0.00 0.00 0.00 54 1021.2
20220125212806 55 50 13.0 17.0 0.00 0.00 0.00 55 1021.4
20220125212259 54 128 5.0 17.0 0.00 0.00 0.00 55 1021.5
20220125211752 54 119 8.0 17.0 0.00 0.00 0.00 55 1021.6
20220125211247 54 116 14.0 14.0 0.00 0.00 0.00 56 1021.6
20220125210738 54 98 8.0 12.0 0.00 0.00 0.00 56 1021.7
20220125205724 54 32 8.0 18.0 0.00 0.00 0.00 56 1021.8
20220125205217 54 56 8.0 18.0 0.00 0.00 0.00 56 1021.9
20220125204202 54 103 9.0 18.0 0.00 0.00 0.00 57 1022.2
20220125203656 53 70 11.0 16.0 0.00 0.00 0.00 57 1022.3
20220125203149 53 113 12.0 12.0 0.00 0.00 0.00 57 1022.5
20220125202642 53 110 12.0 18.0 0.00 0.00 0.00 58 1022.4
20220125202135 53 58 7.0 18.0 0.00 0.00 0.00 58 1022.4
20220125201628 53 96 9.0 18.0 0.00 0.00 0.00 58 1022.5
20220125201121 53 60 15.0 16.0 0.00 0.00 0.00 58 1022.7
20220125200614 52 57 9.0 16.0 0.00 0.00 0.00 59 1022.8
20220125200107 52 96 10.0 17.0 0.00 0.00 0.00 59 1022.9
20220125195604 52 56 11.0 17.0 0.00 0.00 0.00 60 1022.9
20220125195053 52 63 14.0 17.0 0.00 0.00 0.00 60 1023.0
20220125194039 51 86 6.0 16.0 0.00 0.00 0.00 61 1023.1
20220125193532 51 56 8.0 16.0 0.00 0.00 0.00 62 1023.1
20220125193025 51 124 15.0 19.0 0.00 0.00 0.00 62 1023.3
20220125192518 51 123 15.0 19.0 0.00 0.00 0.00 62 1023.4
20220125192011 51 107 8.0 19.0 0.00 0.00 0.00 62 1023.5
20220125191504 50 105 19.0 19.0 0.00 0.00 0.00 63 1023.6
20220125190957 50 82 11.0 17.0 0.00 0.00 0.00 63 1023.5
20220125190450 50 79 9.0 14.0 0.00 0.00 0.00 64 1023.5
20220125185943 49 121 10.0 20.0 0.00 0.00 0.00 64 1023.6
20220125185436 49 74 6.0 20.0 0.00 0.00 0.00 65 1023.6
20220125184929 49 113 12.0 20.0 0.00 0.00 0.00 65 1023.7
20220125184421 49 96 13.0 20.0 0.00 0.00 0.00 65 1023.5
20220125183914 48 112 13.0 22.0 0.00 0.00 0.00 66 1023.5
20220125183408 48 119 11.0 22.0 0.00 0.00 0.00 66 1023.6
20220125182900 48 112 10.0 22.0 0.00 0.00 0.00 67 1023.6
20220125182353 47 103 14.0 22.0 0.00 0.00 0.00 67 1023.8
20220125181846 47 96 16.0 20.0 0.00 0.00 0.00 68 1023.8
20220125181339 47 120 15.0 18.0 0.00 0.00 0.00 69 1023.9
20220125180833 46 106 13.0 18.0 0.00 0.00 0.00 69 1023.9
20220125180325 46 103 13.0 18.0 0.00 0.00 0.00 70 1024.0
20220125175818 46 105 11.0 17.0 0.00 0.00 0.00 71 1024.0
20220125175311 45 93 12.0 17.0 0.00 0.00 0.00 71 1023.8
20220125174805 45 103 14.0 16.0 0.00 0.00 0.00 71 1023.9
20220125174257 45 113 11.0 16.0 0.00 0.00 0.00 72 1024.0
20220125173751 44 112 11.0 16.0 0.00 0.00 0.00 72 1024.0
20220125173243 44 112 10.0 16.0 0.00 0.00 0.00 72 1024.0
20220125172737 44 102 11.0 15.0 0.00 0.00 0.00 73 1024.1
20220125171722 44 103 6.0 15.0 0.00 0.00 0.00 73 1024.1
20220125171215 43 100 10.0 15.0 0.00 0.00 0.00 73 1024.1
20220125170709 43 105 10.0 15.0 0.00 0.00 0.00 73 1024.3
20220125170203 43 105 10.0 22.0 0.00 0.00 0.00 74 1024.1
20220125165655 43 109 11.0 22.0 0.00 0.00 0.00 74 1024.1
20220125165147 43 78 11.0 22.0 0.00 0.00 0.00 74 1023.9
20220125164641 42 119 8.0 21.0 0.00 0.00 0.00 74 1024.0
20220125164133 42 130 9.0 21.0 0.00 0.00 0.00 75 1024.1
20220125163628 42 107 8.0 18.0 0.00 0.00 0.00 75 1024.0
20220125162613 42 65 13.0 16.0 0.00 0.00 0.00 76 1024.2
20220125162105 41 107 12.0 16.0 0.00 0.00 0.00 76 1024.2
20220125161601 41 109 9.0 14.0 0.00 0.00 0.00 77 1024.2
20220125161051 41 119 10.0 14.0 0.00 0.00 0.00 77 1024.2
20220125160544 41 130 7.0 14.0 0.00 0.00 0.00 77 1024.2
20220125160037 41 106 11.0 14.0 0.00 0.00 0.00 77 1024.1
20220125155531 41 64 6.0 11.0 0.00 0.00 0.00 77 1024.1
20220125155023 41 165 6.0 11.0 0.00 0.00 0.00 77 1024.1
20220125154519 41 112 7.0 11.0 0.00 0.00 0.00 77 1024.1
20220125154009 41 100 6.0 16.0 0.00 0.00 0.00 77 1024.0
20220125153502 41 71 6.0 16.0 0.00 0.00 0.00 77 1023.9
20220125152955 41 105 10.0 16.0 0.00 0.00 0.00 78 1023.9
20220125152448 41 60 7.0 16.0 0.00 0.00 0.00 78 1023.9
20220125151434 41 0 0.0 13.0 0.00 0.00 0.00 78 1024.0
20220125150927 41 130 6.0 13.0 0.00 0.00 0.00 78 1023.8